Starlink 2701

operational
NORAD ID: 48656 Int'l Des: 2021-044 Owner: SPXS Country: US Constellation: starlink
LEOCIRCULARSTARLINK_TYPE

Über Starlink 2701

Beschreibung wird geladen...

Live-Position

3D-Globus wird geladen...

Nächste Überflüge

Höhenverlauf

Altitude vs Time

uPlot chart will show altitude changes over time

Zweizeiliger Elementsatz

1 48656U 21044U 25304.82285968 .00000733 00000-0 68137-4 0 9994
2 48656 53.0550 340.1215 0001410 99.4604 260.6545 15.06395839244280
Epoch: 31. Okt. 2025 • Age: 22 hours

Aktueller Status

Höhe 548.3 km
Geschwindigkeit 7.59 km/s
Subsatellitenpunkt 28.49°N, 45.55°E
Startdatum 26. Mai 2021
Alter 4.4 years
Typ internet

Technische Details

Klassifizierung Payload
Masse 260.00 kg
Trockenmasse 248.00 kg
Gesamtmasse 260.00 kg
Länge 0.20 m
Durchmesser 2.80 m
Spannweite 9.00 m
Form Box + pan
Hersteller SPXS
Bus-Typ Starlink
Phasenstatus In Orbit
Besitzer/Staat SPXS/US

Große Konstellationen

Loading constellations...